Weather History for MMTO - April, 2013

Change the Weather History Date:

Saturday, April 13, 2013

  Actual Average Record
Temperature  
Mean Temperature 54 °F -  
Max Temperature 73 °F 74 °F 82 °F (1998)
Min Temperature 35 °F 41 °F 32 °F (2007)
Degree Days  
Heating Degree Days 11    
Growing Degree Days 4 (Base 50)    
Moisture  
Dew Point 12 °F    
Average Humidity 22    
Maximum Humidity 44    
Minimum Humidity 4    
Precipitation  
Precipitation 0.00 in - - ()
Sea Level Pressure  
Sea Level Pressure 30.05 in    
Wind  
Wind Speed 5 mph ()    
Max Wind Speed 20 mph    
Max Gust Speed -    
Visibility 7.4 miles    
Events      
Averages and records for this station are not official NWS values.
T = Trace of Precipitation, MM = Missing Value Source: Averaged Metar Reports

Daily Weather History Graph

Daily Weather History Graph

Search for Another Location

Airport or City:

Trip Planner

Search our weather history database for the weather conditions in past years. The results will help you decide how hot, cold, wet, or windy it might be!

Date:

Astronomy

Apr. 13, 2013 Rise Set
Actual Time 7:22 AM CDT 7:55 PM CDT
Civil Twilight 6:59 AM CDT 8:17 PM CDT
Nautical Twilight 6:33 AM CDT 8:44 PM CDT
Astronomical Twilight 6:07 AM CDT 9:10 PM CDT
Moon 9:36 AM CDT (4/13) 10:57 PM CDT (4/13)
Length of Visible Light 13h 18m
Length of Day
12h 33m
Waxing Crescent, 10% of the Moon is Illuminated
Apr 13
Waxing Crescent
Apr 18
First Quarter
Apr 25
Full
May 2
Last Quarter
May 9
New

Hourly Weather History & Observations

Time (CDT) Temp. Windchill Dew Point Humidity Pressure Visibility Wind Dir Wind Speed Gust Speed Precip Events Conditions
12:45 AM 46.4 °F - 8.6 °F 22% 29.74 in 10.0 mi Calm Calm - N/A   Clear
1:45 AM 42.8 °F - 10.4 °F 27% 30.27 in 8.0 mi Calm Calm - N/A   Clear
2:45 AM 42.8 °F 41.1 °F 12.2 °F 29% 30.25 in 8.0 mi NNW 3.5 mph - N/A   Clear
3:45 AM 39.2 °F 37.0 °F 10.4 °F 31% 29.70 in 8.0 mi NNW 3.5 mph - N/A   Clear
4:45 AM 37.4 °F - 14.0 °F 38% 30.21 in 8.0 mi Calm Calm - N/A   Clear
5:45 AM 35.6 °F - 14.0 °F 41% 30.22 in 8.0 mi Calm Calm - N/A   Clear
6:45 AM 35.6 °F - 15.8 °F 44% 29.75 in 10.0 mi Calm Calm - N/A   Clear
7:43 AM 35.6 °F - 15.8 °F 44% 30.23 in 7.0 mi Calm Calm - N/A   Scattered Clouds
8:43 AM 46.4 °F 45.2 °F 17.6 °F 32% 30.25 in 7.0 mi East 3.5 mph - N/A   Scattered Clouds
9:45 AM 57.2 °F - 15.8 °F 20% 29.71 in 7.0 mi NNE 4.6 mph - N/A   Mostly Cloudy
10:42 AM 64.4 °F - 12.2 °F 13% 30.25 in 7.0 mi East 3.5 mph - N/A   Mostly Cloudy
11:43 AM 68.0 °F - 10.4 °F 11% 30.23 in 7.0 mi SW 4.6 mph - N/A   Mostly Cloudy
12:43 PM 73.4 °F - -7.6 °F 4% 29.65 in 7.0 mi WSW 13.8 mph - N/A   Mostly Cloudy
1:43 PM 73.4 °F - -2.2 °F 5% 30.21 in 6.0 mi WSW 19.6 mph - N/A   Scattered Clouds
2:43 PM 73.4 °F - 3.2 °F 6% 30.19 in 6.0 mi SW 18.4 mph - N/A   Mostly Cloudy
3:45 PM 73.4 °F - 5.0 °F 7% 29.64 in 7.0 mi SW 19.6 mph - N/A   Mostly Cloudy
4:45 PM 73.4 °F - 10.4 °F 9% 30.17 in 7.0 mi SW 19.6 mph - N/A   Scattered Clouds
5:43 PM 71.6 °F - 8.6 °F 9% 30.17 in 7.0 mi SW 18.4 mph - N/A   Scattered Clouds
6:43 PM 68.0 °F - 12.2 °F 12% 29.73 in 7.0 mi SW 16.1 mph - N/A   Partly Cloudy
7:42 PM 64.4 °F - 17.6 °F 16% 30.20 in 7.0 mi SW 13.8 mph - N/A   Partly Cloudy
8:43 PM 60.8 °F - 17.6 °F 19% 30.23 in 7.0 mi SW 9.2 mph - N/A   Clear
9:51 PM 55.4 °F - 19.4 °F 25% 29.74 in 7.0 mi SSW 8.1 mph - N/A   Clear
10:44 PM 57.2 °F - 21.2 °F 25% 30.27 in 7.0 mi SW 9.2 mph - N/A   Clear
11:45 PM 57.2 °F - 24.8 °F 29% 30.27 in 7.0 mi SW 8.1 mph - N/A   Clear